User: anonymous   Login
Location: Caltech
(34.1382°N, 118.1253°W)
Time: 15:25:45
(UTC-08:00)
Language:

UOSAT-12 - Orbit

View from above orbital plane
View from above orbital plane
View from above satellite
View from above satellite

Ground track
Ground track

The orbit data is extracted from the following two-line orbital elements,

1 25693U 99021A   17019.80697167 -.00000106  00000-0  50667-5 0  9995
2 25693  64.5543 222.9814 0020351 326.3699  33.6113 14.80709338958193
Epoch (UTC): 19 January 2017 19:22:02
Eccentricity: 0.0020351
inclination: 64.5543°
perigee height: 613 km
apogee height: 641 km
right ascension of ascending node: 222.9814°
argument of perigee: 326.3699°
revolutions per day: 14.80709338
mean anomaly at epoch: 33.6113°
orbit number at epoch: 95819

The dashed part of the orbit path shows where the satellite is in the earth's shadow,  

DLR